QPF
0.00 0.00 0.00 0.00 0.00 0.01 0.01 0.02 0.02 0.03 0.03 0.03 0.04 0.04 0.04 0.04 0.03 0.03 0.03 0.03 0.03 0.04 0.03 0.04 0.04 0.04 0.04 0.03 0.03 0.02 0.02 0.02 0.01 0.00 0.00 0.00 0.00 0.00 0.00 0.00 0.00 0.00 0.00
0.00 0.00 0.00 0.00 0.01 0.01 0.02 0.02 0.02 0.02 0.02 0.02 0.02 0.02 0.02 0.02 0.02 0.02 0.03 0.03 0.04 0.04 0.04 0.04 0.04 0.04 0.05 0.05 0.04 0.03 0.02 0.01 0.01 0.00 0.00 0.00 0.00 0.00 0.00 0.00 0.00 0.00 0.00
0.00 0.00 0.01 0.01 0.01 0.02 0.02 0.02 0.02 0.02 0.02 0.02 0.01 0.01 0.01 0.01 0.01 0.01 0.02 0.03 0.03 0.04 0.05 0.05 0.06 0.06 0.06 0.05 0.03 0.02 0.01 0.01 0.00 0.00 0.00 0.00 0.00 0.00 0.00 0.00 0.00 0.00 0.00
0.01 0.01 0.01 0.02 0.02 0.02 0.02 0.02 0.02 0.02 0.02 0.01 0.01 0.01 0.01 0.01 0.01 0.02 0.03 0.04 0.05 0.06 0.06 0.06 0.06 0.05 0.04 0.03 0.01 0.01 0.00 0.00 0.00 0.00 0.00 0.00 0.00 0.00 0.00 0.00 0.00 0.00 0.00
0.01 0.02 0.02 0.02 0.02 0.02 0.02 0.02 0.02 0.02 0.01 0.01 0.01 0.01 0.02 0.02 0.04 0.05 0.06 0.08 0.09 0.09 0.09 0.07 0.05 0.03 0.02 0.01 0.00 0.00 0.00 0.00 0.00 0.00 0.00 0.00 0.00 0.00 0.00 0.00 0.00 0.00 0.00
0.02 0.03 0.02 0.02 0.03 0.03 0.03 0.02 0.02 0.02 0.02 0.03 0.03 0.04 0.06 0.09 0.13 0.13 0.11 0.10 0.09 0.07 0.05 0.03 0.02 0.01 0.01 0.00 0.00 0.00 0.00 0.00 0.00 0.00 0.00 0.00 0.00 0.00 0.00 0.00 0.00 0.00 0.00
0.03 0.04 0.04 0.03 0.03 0.03 0.04 0.06 0.05 0.05 0.06 0.08 0.10 0.11 0.13 0.15 0.15 0.11 0.08 0.06 0.05 0.04 0.02 0.02 0.01 0.00 0.00 0.00 0.00 0.00 0.00 0.00 0.00 0.00 0.00 0.00 0.00 0.00 0.00 0.01 0.01 0.01 0.01
0.04 0.05 0.05 0.05 0.06 0.06 0.06 0.08 0.10 0.11 0.12 0.15 0.17 0.17 0.16 0.14 0.11 0.08 0.06 0.04 0.03 0.02 0.01 0.01 0.00 0.00 0.00 0.00 0.00 0.00 0.00 0.00 0.00 0.00 0.00 0.00 0.00 0.00 0.01 0.02 0.01 0.01 0.00
0.02 0.03 0.03 0.03 0.06 0.09 0.10 0.10 0.13 0.18 0.21 0.20 0.18 0.16 0.13 0.10 0.07 0.04 0.03 0.02 0.01 0.01 0.00 0.00 0.00 0.00 0.00 0.00 0.00 0.00 0.00 0.00 0.00 0.00 0.00 0.00 0.00 0.00 0.00 0.00 0.00 0.00 0.00
0.03 0.05 0.06 0.07 0.10 0.13 0.15 0.17 0.18 0.17 0.17 0.15 0.12 0.09 0.07 0.05 0.03 0.01 0.01 0.00 0.00 0.00 0.00 0.00 0.00 0.00 0.00 0.00 0.00 0.00 0.00 0.00 0.00 0.00 0.00 0.00 0.00 0.00 0.00 0.00 0.00 0.01 0.02
0.04 0.06 0.09 0.11 0.13 0.15 0.15 0.15 0.15 0.12 0.09 0.07 0.05 0.04 0.02 0.01 0.01 0.00 0.00 0.00 0.00 0.00 0.00 0.00 0.00 0.00 0.00 0.01 0.00 0.00 0.00 0.00 0.00 0.00 0.00 0.00 0.00 0.00 0.00 0.00 0.00 0.01 0.03
0.06 0.07 0.08 0.10 0.11 0.12 0.11 0.09 0.07 0.05 0.04 0.03 0.02 0.01 0.01 0.00 0.00 0.00 0.00 0.00 0.00 0.00 0.00 0.00 0.00 0.00 0.00 0.00 0.00 0.00 0.00 0.00 0.00 0.00 0.00 0.00 0.00 0.00 0.00 0.00 0.00 0.00 0.01
0.04 0.05 0.05 0.05 0.05 0.05 0.05 0.04 0.03 0.02 0.02 0.01 0.00 0.00 0.00 0.00 0.00 0.00 0.00 0.00 0.00 0.00 0.00 0.00 0.00 0.00 0.00 0.00 0.00 0.00 0.00 0.00 0.00 0.00 0.00 0.00 0.00 0.00 0.00 0.00 0.00 0.00 0.00
0.02 0.02 0.02 0.02 0.02 0.01 0.01 0.01 0.01 0.00 0.00 0.00 0.00 0.00 0.00 0.00 0.00 0.00 0.00 0.00 0.00 0.00 0.00 0.00 0.00 0.00 0.00 0.00 0.00 0.00 0.00 0.00 0.00 0.00 0.00 0.00 0.00 0.00 0.00 0.00 0.00 0.00 0.00
0.01 0.01 0.01 0.01 0.01 0.00 0.00 0.00 0.00 0.00 0.00 0.00 0.00 0.00 0.00 0.00 0.00 0.00 0.00 0.00 0.00 0.00 0.00 0.00 0.00 0.00 0.00 0.00 0.00 0.00 0.00 0.00 0.00 0.00 0.00 0.00 0.00 0.00 0.00 0.00 0.00 0.01 0.01
0.00 0.00 0.00 0.00 0.00 0.00 0.00 0.00 0.00 0.00 0.00 0.00 0.00 0.00 0.00 0.00 0.00 0.00 0.00 0.00 0.00 0.00 0.00 0.00 0.00 0.00 0.00 0.00 0.00 0.00 0.00 0.00 0.00 0.00 0.01 0.01 0.01 0.01 0.00 0.00 0.00 0.01 0.01
0.00 0.00 0.00 0.00 0.00 0.00 0.00 0.00 0.00 0.00 0.00 0.00 0.00 0.00 0.00 0.00 0.00 0.00 0.00 0.00 0.00 0.00 0.00 0.00 0.00 0.00 0.00 0.00 0.00 0.00 0.00 0.00 0.00 0.01 0.01 0.01 0.01 0.01 0.01 0.01 0.00 0.01 0.01
0.00 0.00 0.00 0.00 0.00 0.00 0.00 0.00 0.00 0.00 0.00 0.00 0.00 0.00 0.00 0.00 0.00 0.00 0.00 0.00 0.00 0.00 0.00 0.00 0.00 0.00 0.00 0.00 0.00 0.00 0.00 0.00 0.00 0.01 0.01 0.01 0.01 0.02 0.01 0.01 0.01 0.01 0.02
0.00 0.00 0.00 0.00 0.00 0.00 0.00 0.00 0.00 0.00 0.00 0.00 0.00 0.00 0.00 0.00 0.00 0.00 0.00 0.00 0.00 0.00 0.00 0.00 0.00 0.00 0.00 0.01 0.01 0.01 0.01 0.01 0.01 0.01 0.01 0.01 0.01 0.02 0.02 0.01 0.01 0.01 0.02
0.00 0.00 0.00 0.00 0.00 0.00 0.00 0.00 0.00 0.00 0.00 0.00 0.00 0.00 0.00 0.00 0.00 0.00 0.00 0.00 0.00 0.00 0.00 0.00 0.00 0.00 0.01 0.01 0.01 0.01 0.01 0.01 0.01 0.01 0.01 0.01 0.01 0.02 0.02 0.02 0.02 0.02 0.02
0.00 0.00 0.00 0.00 0.00 0.00 0.00 0.00 0.00 0.00 0.00 0.00 0.00 0.00 0.00 0.00 0.00 0.00 0.00 0.00 0.00 0.00 0.00 0.00 0.00 0.00 0.01 0.01 0.01 0.01 0.01 0.01 0.01 0.01 0.01 0.01 0.01 0.02 0.02 0.02 0.02 0.02 0.02
0.00 0.00 0.00 0.00 0.00 0.00 0.00 0.00 0.00 0.00 0.00 0.00 0.00 0.00 0.00 0.00 0.00 0.00 0.00 0.00 0.00 0.00 0.00 0.01 0.01 0.01 0.01 0.02 0.02 0.02 0.01 0.01 0.01 0.01 0.02 0.02 0.02 0.02 0.02 0.02 0.02 0.02 0.02
0.00 0.00 0.00 0.00 0.00 0.00 0.00 0.00 0.00 0.00 0.00 0.00 0.00 0.00 0.00 0.00 0.00 0.00 0.00 0.00 0.00 0.00 0.00 0.01 0.01 0.01 0.01 0.01 0.02 0.04 0.04 0.03 0.02 0.03 0.04 0.05 0.04 0.04 0.03 0.03 0.02 0.02 0.02
0.00 0.00 0.00 0.00 0.00 0.00 0.00 0.00 0.00 0.00 0.00 0.00 0.00 0.00 0.00 0.00 0.00 0.00 0.00 0.00 0.00 0.00 0.00 0.00 0.01 0.01 0.01 0.01 0.02 0.02 0.03 0.03 0.04 0.06 0.07 0.08 0.07 0.05 0.04 0.03 0.02 0.02 0.02
0.00 0.00 0.00 0.00 0.00 0.00 0.00 0.00 0.00 0.00 0.00 0.00 0.00 0.00 0.00 0.00 0.00 0.00 0.00 0.00 0.00 0.00 0.00 0.00 0.00 0.01 0.01 0.01 0.01 0.02 0.02 0.02 0.04 0.05 0.06 0.05 0.04 0.03 0.03 0.03 0.02 0.02 0.02
0.00 0.00 0.00 0.00 0.00 0.00 0.00 0.00 0.00 0.00 0.00 0.00 0.00 0.00 0.00 0.00 0.00 0.00 0.00 0.00 0.00 0.00 0.00 0.00 0.00 0.00 0.01 0.01 0.01 0.01 0.01 0.02 0.02 0.03 0.03 0.03 0.03 0.03 0.03 0.03 0.02 0.02 0.01
MSLP
1008.42 1008.40 1008.40 1008.41 1008.43 1008.47 1008.56 1008.73 1009.01 1009.41 1009.95 1010.59 1011.33 1012.11 1012.91 1013.71 1014.47 1015.20 1015.91 1016.61 1017.31 1018.02 1018.73 1019.42 1020.09 1020.70 1021.24 1021.70 1022.07 1022.37 1022.61 1022.80 1022.96 1023.09 1023.21 1023.29 1023.32 1023.29 1023.19 1023.00 1022.72 1022.36 1021.94
1008.96 1008.94 1008.93 1008.94 1008.95 1008.98 1009.06 1009.22 1009.48 1009.88 1010.40 1011.03 1011.76 1012.54 1013.34 1014.13 1014.91 1015.65 1016.38 1017.09 1017.80 1018.50 1019.20 1019.87 1020.49 1021.06 1021.54 1021.93 1022.24 1022.47 1022.64 1022.76 1022.86 1022.94 1023.00 1023.04 1023.03 1022.96 1022.82 1022.61 1022.30 1021.93 1021.49
1009.70 1009.69 1009.69 1009.69 1009.69 1009.71 1009.77 1009.91 1010.16 1010.53 1011.03 1011.64 1012.35 1013.11 1013.89 1014.68 1015.45 1016.20 1016.92 1017.64 1018.34 1019.02 1019.69 1020.32 1020.89 1021.40 1021.81 1022.13 1022.37 1022.52 1022.62 1022.68 1022.71 1022.73 1022.74 1022.72 1022.67 1022.56 1022.39 1022.15 1021.83 1021.43 1020.97
1010.60 1010.60 1010.61 1010.60 1010.60 1010.60 1010.66 1010.78 1011.01 1011.36 1011.83 1012.41 1013.08 1013.81 1014.57 1015.33 1016.08 1016.81 1017.52 1018.21 1018.89 1019.54 1020.16 1020.73 1021.24 1021.67 1022.01 1022.25 1022.40 1022.48 1022.51 1022.50 1022.47 1022.43 1022.38 1022.32 1022.23 1022.09 1021.90 1021.63 1021.29 1020.88 1020.41
1011.56 1011.58 1011.60 1011.60 1011.60 1011.60 1011.65 1011.77 1011.99 1012.32 1012.76 1013.31 1013.95 1014.64 1015.36 1016.08 1016.79 1017.49 1018.16 1018.80 1019.42 1020.01 1020.57 1021.06 1021.49 1021.84 1022.09 1022.24 1022.31 1022.31 1022.27 1022.19 1022.10 1022.02 1021.93 1021.83 1021.71 1021.55 1021.34 1021.06 1020.72 1020.30 1019.82
1012.52 1012.56 1012.59 1012.61 1012.62 1012.65 1012.71 1012.84 1013.06 1013.38 1013.81 1014.33 1014.93 1015.58 1016.25 1016.91 1017.57 1018.20 1018.80 1019.37 1019.92 1020.43 1020.89 1021.29 1021.62 1021.87 1022.02 1022.09 1022.07 1022.00 1021.89 1021.76 1021.63 1021.50 1021.38 1021.27 1021.13 1020.97 1020.75 1020.48 1020.13 1019.72 1019.24
1013.41 1013.48 1013.54 1013.58 1013.63 1013.69 1013.78 1013.94 1014.18 1014.51 1014.93 1015.43 1015.99 1016.59 1017.19 1017.79 1018.36 1018.90 1019.42 1019.90 1020.34 1020.75 1021.11 1021.40 1021.62 1021.77 1021.82 1021.80 1021.71 1021.57 1021.40 1021.23 1021.07 1020.92 1020.79 1020.67 1020.54 1020.38 1020.17 1019.91 1019.58 1019.17 1018.70
1014.23 1014.32 1014.41 1014.50 1014.60 1014.71 1014.85 1015.05 1015.32 1015.67 1016.09 1016.56 1017.08 1017.61 1018.14 1018.64 1019.12 1019.56 1019.97 1020.34 1020.67 1020.96 1021.20 1021.39 1021.50 1021.55 1021.51 1021.41 1021.25 1021.06 1020.86 1020.66 1020.48 1020.33 1020.20 1020.09 1019.97 1019.82 1019.64 1019.39 1019.07 1018.68 1018.21
1014.99 1015.11 1015.25 1015.39 1015.53 1015.70 1015.90 1016.15 1016.45 1016.81 1017.22 1017.67 1018.13 1018.59 1019.02 1019.43 1019.79 1020.12 1020.40 1020.66 1020.88 1021.06 1021.19 1021.27 1021.30 1021.25 1021.14 1020.98 1020.78 1020.55 1020.32 1020.12 1019.94 1019.79 1019.67 1019.57 1019.47 1019.34 1019.17 1018.94 1018.63 1018.24 1017.78
1015.73 1015.89 1016.07 1016.25 1016.45 1016.67 1016.92 1017.21 1017.54 1017.90 1018.29 1018.69 1019.08 1019.45 1019.79 1020.08 1020.32 1020.53 1020.70 1020.85 1020.96 1021.04 1021.09 1021.09 1021.04 1020.94 1020.78 1020.58 1020.35 1020.11 1019.88 1019.67 1019.50 1019.36 1019.25 1019.16 1019.07 1018.95 1018.78 1018.55 1018.24 1017.86 1017.39
1016.50 1016.70 1016.91 1017.13 1017.37 1017.63 1017.91 1018.22 1018.55 1018.90 1019.25 1019.58 1019.89 1020.17 1020.39 1020.56 1020.70 1020.79 1020.86 1020.91 1020.94 1020.95 1020.93 1020.88 1020.80 1020.67 1020.49 1020.28 1020.04 1019.80 1019.57 1019.37 1019.20 1019.07 1018.96 1018.87 1018.77 1018.64 1018.46 1018.21 1017.88 1017.48 1016.99
1017.33 1017.55 1017.78 1018.02 1018.28 1018.56 1018.84 1019.15 1019.46 1019.77 1020.06 1020.32 1020.54 1020.71 1020.82 1020.89 1020.91 1020.91 1020.90 1020.88 1020.85 1020.82 1020.77 1020.71 1020.61 1020.48 1020.31 1020.11 1019.88 1019.66 1019.44 1019.24 1019.07 1018.92 1018.80 1018.68 1018.55 1018.38 1018.16 1017.87 1017.51 1017.07 1016.56
1018.19 1018.42 1018.66 1018.91 1019.16 1019.43 1019.70 1019.98 1020.25 1020.50 1020.73 1020.90 1021.03 1021.10 1021.11 1021.08 1021.02 1020.94 1020.87 1020.80 1020.74 1020.70 1020.65 1020.59 1020.51 1020.40 1020.26 1020.08 1019.88 1019.67 1019.45 1019.25 1019.06 1018.89 1018.72 1018.56 1018.37 1018.14 1017.86 1017.51 1017.09 1016.60 1016.04
1019.05 1019.28 1019.51 1019.74 1019.97 1020.21 1020.45 1020.68 1020.90 1021.10 1021.25 1021.35 1021.39 1021.37 1021.30 1021.19 1021.07 1020.94 1020.83 1020.74 1020.68 1020.63 1020.60 1020.57 1020.52 1020.45 1020.33 1020.18 1020.00 1019.80 1019.58 1019.35 1019.13 1018.91 1018.69 1018.45 1018.18 1017.87 1017.50 1017.08 1016.58 1016.03 1015.42
1019.83 1020.05 1020.26 1020.46 1020.66 1020.86 1021.07 1021.25 1021.42 1021.56 1021.65 1021.68 1021.65 1021.57 1021.44 1021.29 1021.12 1020.96 1020.83 1020.74 1020.68 1020.65 1020.65 1020.64 1020.62 1020.57 1020.49 1020.36 1020.18 1019.98 1019.74 1019.49 1019.22 1018.93 1018.63 1018.30 1017.94 1017.53 1017.07 1016.55 1015.98 1015.35 1014.68
1020.46 1020.66 1020.85 1021.03 1021.20 1021.37 1021.54 1021.69 1021.82 1021.92 1021.96 1021.95 1021.88 1021.76 1021.60 1021.42 1021.23 1021.06 1020.92 1020.83 1020.78 1020.76 1020.77 1020.78 1020.77 1020.74 1020.66 1020.54 1020.36 1020.13 1019.87 1019.57 1019.24 1018.88 1018.49 1018.07 1017.60 1017.09 1016.54 1015.93 1015.28 1014.58 1013.85
1020.91 1021.10 1021.27 1021.43 1021.58 1021.73 1021.88 1022.01 1022.12 1022.19 1022.22 1022.19 1022.10 1021.97 1021.79 1021.60 1021.41 1021.23 1021.10 1021.00 1020.94 1020.92 1020.93 1020.93 1020.92 1020.88 1020.79 1020.64 1020.45 1020.19 1019.88 1019.53 1019.14 1018.70 1018.23 1017.72 1017.16 1016.56 1015.91 1015.22 1014.50 1013.74 1012.96
1021.18 1021.36 1021.53 1021.68 1021.83 1021.97 1022.12 1022.24 1022.35 1022.42 1022.44 1022.41 1022.33 1022.19 1022.02 1021.83 1021.64 1021.47 1021.32 1021.21 1021.14 1021.10 1021.07 1021.05 1021.00 1020.93 1020.80 1020.63 1020.39 1020.09 1019.74 1019.33 1018.88 1018.38 1017.83 1017.24 1016.60 1015.92 1015.20 1014.45 1013.66 1012.86 1012.04
1021.30 1021.49 1021.66 1021.82 1021.98 1022.14 1022.29 1022.43 1022.54 1022.62 1022.65 1022.62 1022.54 1022.42 1022.26 1022.07 1021.88 1021.70 1021.54 1021.41 1021.31 1021.22 1021.15 1021.07 1020.98 1020.85 1020.67 1020.44 1020.16 1019.81 1019.41 1018.96 1018.45 1017.90 1017.29 1016.64 1015.94 1015.20 1014.43 1013.62 1012.79 1011.96 1011.11
1021.32 1021.54 1021.73 1021.92 1022.10 1022.28 1022.44 1022.59 1022.71 1022.79 1022.82 1022.80 1022.73 1022.61 1022.46 1022.28 1022.08 1021.89 1021.71 1021.55 1021.40 1021.26 1021.12 1020.98 1020.81 1020.61 1020.38 1020.09 1019.75 1019.35 1018.91 1018.41 1017.86 1017.26 1016.62 1015.92 1015.18 1014.41 1013.60 1012.76 1011.91 1011.05 1010.19
1021.33 1021.57 1021.80 1022.02 1022.23 1022.42 1022.60 1022.75 1022.86 1022.93 1022.96 1022.93 1022.86 1022.73 1022.57 1022.39 1022.19 1021.98 1021.77 1021.57 1021.37 1021.17 1020.97 1020.75 1020.51 1020.23 1019.92 1019.57 1019.18 1018.73 1018.25 1017.71 1017.13 1016.50 1015.83 1015.11 1014.35 1013.55 1012.72 1011.87 1011.01 1010.14 1009.29
1021.35 1021.64 1021.91 1022.16 1022.39 1022.60 1022.77 1022.90 1023.00 1023.04 1023.04 1022.99 1022.89 1022.75 1022.58 1022.39 1022.17 1021.95 1021.71 1021.47 1021.22 1020.96 1020.69 1020.40 1020.08 1019.73 1019.35 1018.93 1018.48 1017.99 1017.46 1016.90 1016.29 1015.64 1014.95 1014.22 1013.44 1012.63 1011.80 1010.95 1010.09 1009.23 1008.38
1021.41 1021.75 1022.06 1022.34 1022.59 1022.79 1022.94 1023.04 1023.09 1023.09 1023.05 1022.96 1022.83 1022.66 1022.47 1022.26 1022.03 1021.79 1021.53 1021.25 1020.96 1020.65 1020.31 1019.95 1019.56 1019.13 1018.68 1018.20 1017.70 1017.16 1016.60 1016.00 1015.37 1014.71 1014.00 1013.26 1012.48 1011.67 1010.84 1009.99 1009.14 1008.30 1007.47
1021.49 1021.88 1022.23 1022.53 1022.78 1022.96 1023.08 1023.14 1023.13 1023.08 1022.98 1022.84 1022.67 1022.48 1022.27 1022.04 1021.80 1021.54 1021.26 1020.96 1020.63 1020.26 1019.87 1019.44 1018.98 1018.49 1017.97 1017.43 1016.87 1016.28 1015.68 1015.06 1014.40 1013.72 1013.01 1012.27 1011.49 1010.68 1009.85 1009.01 1008.18 1007.35 1006.55
1021.57 1022.00 1022.37 1022.68 1022.92 1023.08 1023.15 1023.16 1023.10 1022.99 1022.83 1022.65 1022.44 1022.22 1022.00 1021.76 1021.51 1021.24 1020.94 1020.61 1020.25 1019.84 1019.40 1018.91 1018.38 1017.82 1017.24 1016.63 1016.01 1015.38 1014.74 1014.09 1013.41 1012.72 1012.00 1011.25 1010.47 1009.67 1008.85 1008.03 1007.21 1006.41 1005.63
1021.59 1022.05 1022.44 1022.75 1022.97 1023.09 1023.13 1023.09 1022.98 1022.82 1022.62 1022.40 1022.17 1021.94 1021.70 1021.45 1021.19 1020.92 1020.60 1020.25 1019.85 1019.40 1018.90 1018.35 1017.76 1017.14 1016.49 1015.82 1015.15 1014.48 1013.80 1013.11 1012.42 1011.71 1010.98 1010.23 1009.45 1008.66 1007.86 1007.05 1006.26 1005.48 1004.74
Thickness
5568 5567 5566 5566 5566 5567 5568 5569 5570 5570 5570 5569 5568 5565 5562 5558 5554 5549 5544 5538 5532 5526 5520 5515 5508 5502 5497 5490 5484 5479 5472 5465 5461 5459 5452 5448 5443 5439 5435 5430 5426 5423 5419
5547 5545 5544 5544 5545 5546 5547 5549 5550 5551 5552 5552 5551 5548 5546 5543 5539 5535 5529 5523 5518 5513 5507 5501 5495 5489 5483 5477 5471 5465 5458 5452 5447 5444 5439 5433 5428 5423 5419 5415 5411 5406 5402
5526 5524 5523 5523 5524 5525 5527 5530 5531 5532 5533 5533 5533 5531 5529 5527 5524 5519 5515 5510 5504 5499 5493 5487 5481 5477 5471 5465 5458 5452 5446 5441 5434 5429 5425 5418 5413 5407 5403 5399 5394 5389 5383
5508 5505 5503 5503 5504 5506 5509 5511 5512 5514 5515 5515 5515 5514 5512 5510 5507 5504 5500 5495 5489 5484 5479 5474 5469 5464 5459 5454 5448 5441 5434 5428 5421 5415 5410 5404 5397 5391 5385 5382 5380 5372 5365
5492 5488 5486 5486 5488 5489 5491 5493 5495 5496 5497 5498 5498 5496 5495 5493 5491 5489 5486 5481 5476 5471 5466 5462 5457 5453 5448 5443 5437 5430 5423 5415 5408 5401 5395 5389 5383 5375 5368 5363 5360 5356 5349
5479 5475 5474 5474 5474 5474 5475 5477 5479 5480 5481 5482 5482 5481 5480 5479 5477 5476 5473 5468 5463 5459 5454 5450 5446 5441 5436 5431 5425 5419 5412 5404 5395 5388 5381 5373 5367 5358 5352 5345 5340 5336 5334
5468 5464 5463 5464 5463 5462 5464 5465 5466 5467 5468 5468 5468 5468 5467 5466 5465 5463 5460 5456 5452 5447 5442 5438 5434 5428 5422 5416 5411 5405 5397 5390 5383 5375 5367 5358 5350 5343 5336 5330 5322 5317 5313
5460 5457 5455 5455 5454 5454 5455 5455 5455 5456 5457 5457 5456 5456 5455 5454 5454 5452 5449 5444 5440 5435 5431 5426 5421 5415 5410 5406 5400 5392 5383 5375 5368 5360 5351 5343 5335 5328 5321 5316 5310 5305 5301
5456 5453 5451 5450 5449 5448 5448 5447 5447 5448 5447 5446 5446 5445 5445 5444 5444 5442 5437 5433 5428 5424 5420 5415 5409 5404 5400 5397 5390 5381 5371 5362 5353 5345 5337 5329 5322 5315 5308 5302 5295 5289 5290
5453 5450 5448 5446 5445 5444 5443 5442 5441 5441 5439 5438 5437 5436 5436 5435 5435 5432 5428 5423 5418 5414 5408 5403 5398 5394 5390 5385 5377 5367 5357 5348 5339 5330 5322 5314 5308 5301 5295 5289 5282 5275 5273
5450 5448 5445 5443 5441 5440 5438 5437 5436 5434 5432 5430 5427 5426 5425 5425 5425 5423 5420 5413 5409 5403 5398 5392 5387 5383 5378 5371 5363 5352 5343 5337 5326 5316 5308 5303 5298 5293 5287 5281 5273 5265 5261
5448 5445 5442 5440 5438 5435 5433 5431 5429 5427 5424 5421 5419 5417 5415 5414 5414 5413 5410 5405 5401 5394 5388 5381 5376 5372 5365 5357 5347 5339 5332 5323 5311 5304 5298 5295 5291 5286 5282 5276 5270 5263 5257
5444 5441 5437 5435 5432 5431 5429 5425 5422 5420 5417 5413 5411 5409 5407 5405 5403 5402 5399 5394 5390 5383 5377 5372 5365 5357 5350 5340 5332 5325 5316 5306 5300 5294 5291 5288 5284 5280 5277 5274 5269 5264 5259
5440 5435 5433 5430 5427 5424 5422 5420 5416 5413 5410 5407 5405 5402 5399 5396 5394 5391 5387 5382 5377 5371 5364 5357 5350 5341 5333 5325 5318 5310 5303 5297 5292 5288 5284 5282 5279 5276 5273 5269 5265 5261 5260
5434 5430 5427 5424 5420 5417 5415 5413 5410 5407 5405 5402 5399 5395 5391 5387 5386 5384 5378 5373 5366 5360 5352 5342 5334 5325 5317 5311 5306 5301 5296 5291 5286 5282 5279 5276 5275 5272 5270 5266 5261 5257 5254
5430 5424 5421 5417 5414 5411 5409 5406 5406 5404 5401 5398 5394 5390 5385 5382 5378 5373 5368 5362 5355 5348 5338 5327 5318 5311 5305 5300 5296 5293 5289 5285 5281 5277 5274 5271 5269 5268 5266 5264 5260 5257 5256
5425 5420 5416 5413 5409 5406 5403 5400 5396 5394 5392 5389 5385 5381 5378 5373 5368 5362 5357 5350 5342 5334 5322 5313 5306 5300 5296 5293 5289 5285 5283 5280 5276 5273 5271 5268 5266 5265 5263 5262 5261 5259 5259
5420 5417 5412 5407 5404 5400 5397 5393 5389 5385 5380 5376 5374 5371 5368 5363 5357 5351 5344 5336 5327 5319 5310 5303 5298 5294 5290 5287 5284 5281 5278 5276 5273 5270 5268 5267 5265 5263 5263 5262 5262 5261 5261
5416 5410 5406 5402 5398 5394 5390 5386 5381 5377 5372 5367 5362 5359 5356 5351 5345 5338 5331 5321 5314 5307 5301 5296 5292 5288 5285 5282 5279 5277 5274 5272 5270 5268 5267 5266 5265 5264 5264 5264 5264 5265 5265
5411 5408 5402 5397 5392 5388 5383 5378 5373 5368 5363 5358 5353 5348 5345 5339 5332 5326 5319 5312 5305 5299 5294 5289 5286 5283 5280 5278 5275 5273 5271 5270 5268 5267 5266 5266 5266 5265 5265 5266 5267 5267 5267
5406 5402 5398 5391 5386 5381 5376 5371 5365 5360 5355 5350 5345 5341 5339 5331 5323 5317 5310 5304 5297 5291 5287 5283 5281 5278 5276 5274 5273 5271 5269 5268 5268 5267 5266 5267 5267 5267 5268 5268 5269 5269 5270
5400 5395 5389 5384 5379 5374 5369 5364 5358 5353 5347 5342 5337 5333 5331 5323 5315 5309 5303 5297 5290 5285 5280 5277 5275 5274 5273 5271 5270 5269 5268 5268 5268 5268 5268 5268 5269 5270 5271 5271 5272 5272 5273
5394 5388 5383 5378 5373 5369 5362 5356 5351 5345 5340 5335 5331 5326 5321 5315 5308 5302 5296 5290 5284 5279 5275 5272 5271 5271 5270 5270 5269 5268 5268 5268 5268 5268 5269 5270 5272 5273 5274 5275 5275 5275 5276
5388 5382 5376 5371 5365 5360 5355 5349 5344 5339 5334 5329 5325 5320 5314 5307 5301 5295 5288 5283 5277 5273 5270 5268 5267 5268 5268 5268 5268 5269 5269 5269 5269 5270 5271 5273 5275 5276 5276 5277 5277 5277 5277
5382 5376 5370 5364 5359 5354 5348 5343 5338 5333 5328 5323 5318 5313 5307 5300 5294 5288 5282 5276 5272 5268 5266 5265 5265 5266 5267 5267 5268 5269 5270 5271 5272 5273 5275 5276 5277 5277 5277 5277 5278 5278 5278
5375 5370 5364 5359 5353 5348 5342 5337 5332 5326 5321 5317 5312 5305 5299 5293 5287 5282 5276 5271 5267 5264 5263 5264 5265 5265 5266 5267 5269 5270 5271 5273 5274 5275 5276 5277 5277 5277 5278 5279 5279 5279 5279